66P/du Toit 

Epoch 2003 Aug. 29.0 TT = JDT 2452880.5  

T 2003 Aug. 27.98598 TT                                 Nakano

q   1.2742723            (2000.0)            P               Q

n   0.06703630     Peri.  257.24819     +0.14494039     +0.98198653

a   6.0015400      Node    22.21468     -0.73686862     +0.18889101

e   0.7876758      Incl.   18.70082     -0.66031577     +0.00475780

P  14.70 (+/- 0.01 day)

From 38 observations 1944-2003, mean residual 1".34.

   Nongravitational parameters A1 = +0.18 +/- 0.10, A2 = -0.0112 +/- 0.0000.

Residuals in seconds of arc 

1944/                     440712 078  1.8-  2.7+    441019 711  1.1+  1.0+  

440523 078(14.7-  4.3+)   440714 822 (3.4-  0.7-)   441020 711  0.3+  0.6+  

440528 078 (5.5-  7.6+)   440714 822  0.1-  0.9-    441020 662  0.4-  2.5+  

440529 822  0.5+  2.2-    440717 078  1.0+  0.8+    441020 662 (0.6-  5.0-) 

440529 822  2.6+  1.5-    440717 078  1.0-  1.5-    441021 711  2.0+  0.9+  

440530 822  0.6+  0.5-    440727 078  0.3-  0.7+    441022 711  1.6+  1.6-  

440530 822  1.4+  0.9-    440728 822  0.1-  1.8+    1974/                   

440612 822  0.7+  0.1-    440728 822 (1.6- 16.4+)   740322 805  2.0-  1.2-  

440612 822  1.7+  0.9-    440812 078(57.7+  2.9+)   740422 805  0.7+  3.6+  

440614 822  0.8+  1.2+    440816 822  0.9-  0.7-    2003/                   

440614 822  2.4-  1.3+    440816 822  0.3-  1.6-    030310 291  0.5+  0.6+  

440618 822  1.7-  0.0     440819 822  1.1-  2.2-    030310 291  0.7+  0.8+  

440618 822  1.0-  1.4+    440819 822 (1.8-  4.6-)   030310 291  0.5+  0.7+  

440627 822  1.0-  0.5-    440825 078 (5.0+  2.8-)   030311 291  0.4+  0.9+  

440627 822  0.2-  1.9-    440919 822  1.4+  2.1+    030311 291  0.5+  0.8+  

440628 822  1.7-  1.9+    440921 822 (0.7-  4.4+)   030311 291  0.6+  0.7+  

440628 822  0.2-  0.9-    440926 754 (1.1+  5.6+)   

440712 078  0.9-  2.7-    440926 754 (4.1+  0.2+)   



NAKANO

         **** Don't distribute anyone except personal use only ****

                (C) Copyright 2003 OAA/ComputingSection

write mail from CFAD0::NAKANO on 2003-03-20 00:36:21(JST).

 



–ß‚è‚Ü‚·B